When you browse on this site, cookies collect data to enhance your experience and personalize the content and advertising you see.
Visit our Privacy Policy to learn more. By continuing to use the site, you agree to this use of cookies and data.
  • Em Portugal
  • Lista de países
  • Para 7 dias
  • Temperatura da água
  • Mapas de satélite
  • Mapa do tempo
  • Widgets de tempo
  • user-avatar
    Iniciar Sessão

    Previsão horária em Njiva

    Hoje, 17 Janeiro, Quinta-feira

    Tempo Temperatura Precipitação Vento Pressão Humidade
    00:00 +24°C° 0.5 mm 3 m/s 666 mmHg 62%
    01:00 +24°C° 0.5 mm 3 m/s 666 mmHg 60%
    02:00 +22°C° 0.1 mm 3 m/s 666 mmHg 60%
    03:00 +22°C° 0.1 mm 3 m/s 666 mmHg 60%
    04:00 +21°C° 0.1 mm 4 m/s 666 mmHg 59%
    05:00 +22°C° 0 mm 3 m/s 666 mmHg 58%
    06:00 +22°C° 0 mm 3 m/s 666 mmHg 56%
    07:00 +22°C° 0 mm 3 m/s 666 mmHg 54%
    08:00 +25°C° 0 mm 3 m/s 667 mmHg 50%
    09:00 +26°C° 0 mm 2 m/s 667 mmHg 45%
    10:00 +28°C° 0 mm 2 m/s 667 mmHg 40%
    11:00 +29°C° 0 mm 2 m/s 667 mmHg 39%
    12:00 +31°C° 0 mm 2 m/s 667 mmHg 37%
    13:00 +33°C° 0 mm 1 m/s 667 mmHg 35%
    14:00 +32°C° 0 mm 1 m/s 666 mmHg 35%
    15:00 +32°C° 0 mm 1 m/s 666 mmHg 36%
    16:00 +32°C° 0 mm 1 m/s 665 mmHg 36%
    17:00 +31°C° 0 mm 1 m/s 665 mmHg 38%
    18:00 +30°C° 0 mm 1 m/s 665 mmHg 41%
    19:00 +27°C° 0 mm 0 m/s 665 mmHg 44%
    20:00 +29°C° 0 mm 1 m/s 665 mmHg 46%
    21:00 +28°C° 0 mm 1 m/s 666 mmHg 48%
    22:00 +27°C° 0 mm 2 m/s 666 mmHg 50%
    23:00 +26°C° 0.1 mm 3 m/s 666 mmHg 46%

    Amanhã, 18 Janeiro, Sexta-feira

    Tempo Temperatura Precipitação Vento Pressão Humidade
    00:00 +25°C° 0.1 mm 3 m/s 666 mmHg 43%
    01:00 +23°C° 0.1 mm 4 m/s 666 mmHg 40%
    02:00 +24°C° 0 mm 3 m/s 666 mmHg 42%
    03:00 +22°C° 0 mm 3 m/s 666 mmHg 44%
    04:00 +22°C° 0 mm 3 m/s 665 mmHg 47%
    05:00 +24°C° 0 mm 3 m/s 666 mmHg 50%
    06:00 +24°C° 0 mm 3 m/s 666 mmHg 54%
    07:00 +25°C° 0 mm 3 m/s 667 mmHg 57%
    08:00 +26°C° 0 mm 3 m/s 667 mmHg 53%
    09:00 +28°C° 0 mm 3 m/s 668 mmHg 50%
    10:00 +30°C° 0 mm 3 m/s 668 mmHg 46%
    11:00 +31°C° 0 mm 3 m/s 668 mmHg 44%
    12:00 +33°C° 0 mm 3 m/s 668 mmHg 41%
    13:00 +34°C° 0 mm 3 m/s 667 mmHg 38%
    14:00 +34°C° 0 mm 3 m/s 667 mmHg 38%
    15:00 +33°C° 0 mm 3 m/s 666 mmHg 39%
    16:00 +32°C° 0 mm 2 m/s 665 mmHg 40%
    17:00 +31°C° 0 mm 2 m/s 665 mmHg 42%
    18:00 +30°C° 0 mm 2 m/s 665 mmHg 45%
    19:00 +29°C° 0 mm 1 m/s 665 mmHg 47%
    20:00 +28°C° 0.5 mm 1 m/s 666 mmHg 51%
    21:00 +27°C° 0.5 mm 1 m/s 666 mmHg 55%
    22:00 +25°C° 0.5 mm 0 m/s 667 mmHg 58%
    23:00 +26°C° 0 mm 1 m/s 666 mmHg 59%

    Depois de amanhã, 19 Janeiro, Sábado

    Tempo Temperatura Precipitação Vento Pressão Humidade
    00:00 +26°C° 0 mm 1 m/s 666 mmHg 60%
    01:00 +25°C° 0 mm 1 m/s 666 mmHg 61%
    02:00 +25°C° 0 mm 1 m/s 666 mmHg 62%
    03:00 +24°C° 0 mm 1 m/s 666 mmHg 63%
    04:00 +24°C° 0 mm 1 m/s 665 mmHg 64%
    05:00 +24°C° 0 mm 1 m/s 666 mmHg 62%
    06:00 +24°C° 0 mm 1 m/s 666 mmHg 59%
    07:00 +25°C° 0 mm 2 m/s 667 mmHg 57%
    08:00 +27°C° 0 mm 2 m/s 667 mmHg 50%
    09:00 +29°C° 0 mm 2 m/s 668 mmHg 42%
    10:00 +31°C° 0 mm 2 m/s 669 mmHg 35%
    11:00 +34°C° 0 mm 2 m/s 668 mmHg 32%
    12:00 +35°C° 0 mm 1 m/s 668 mmHg 30%
    13:00 +36°C° 0 mm 1 m/s 668 mmHg 27%
    14:00 +36°C° 0 mm 1 m/s 667 mmHg 28%
    15:00 +35°C° 0 mm 1 m/s 666 mmHg 29%
    16:00 +35°C° 0 mm 2 m/s 665 mmHg 30%
    17:00 +33°C° 0 mm 1 m/s 665 mmHg 32%
    18:00 +32°C° 0 mm 1 m/s 665 mmHg 35%
    19:00 +31°C° 0 mm 1 m/s 665 mmHg 37%
    20:00 +30°C° 0 mm 1 m/s 666 mmHg 38%
    21:00 +30°C° 0 mm 1 m/s 666 mmHg 39%
    22:00 +29°C° 0 mm 1 m/s 667 mmHg 41%
    23:00 +29°C° 0 mm 1 m/s 667 mmHg 43%

    20 Janeiro, Domingo

    Tempo Temperatura Precipitação Vento Pressão Humidade
    00:00 +28°C° 0 mm 2 m/s 667 mmHg 45%
    01:00 +27°C° 0 mm 2 m/s 666 mmHg 48%
    02:00 +26°C° 0 mm 3 m/s 666 mmHg 51%
    03:00 +26°C° 0 mm 3 m/s 666 mmHg 54%
    04:00 +25°C° 0 mm 3 m/s 666 mmHg 57%
    05:00 +25°C° 0.3 mm 4 m/s 667 mmHg 57%
    06:00 +25°C° 0.3 mm 4 m/s 667 mmHg 57%
    07:00 +23°C° 0.3 mm 5 m/s 668 mmHg 56%
    08:00 +27°C° 0 mm 3 m/s 668 mmHg 50%
    09:00 +29°C° 0 mm 2 m/s 669 mmHg 43%
    10:00 +31°C° 0 mm 1 m/s 669 mmHg 37%
    11:00 +33°C° 0 mm 1 m/s 669 mmHg 34%
    12:00 +35°C° 0 mm 1 m/s 669 mmHg 31%
    13:00 +36°C° 0 mm 1 m/s 668 mmHg 28%
    14:00 +36°C° 0 mm 1 m/s 668 mmHg 28%
    15:00 +35°C° 0 mm 1 m/s 667 mmHg 28%
    16:00 +35°C° 0 mm 1 m/s 666 mmHg 28%
    17:00 +35°C° 0.2 mm 2 m/s 666 mmHg 33%
    18:00 +32°C° 0.2 mm 2 m/s 666 mmHg 39%
    19:00 +30°C° 0.2 mm 2 m/s 666 mmHg 44%
    20:00 +29°C° 0.1 mm 2 m/s 666 mmHg 49%
    21:00 +28°C° 0.1 mm 2 m/s 667 mmHg 54%
    22:00 +26°C° 0.1 mm 2 m/s 667 mmHg 59%
    23:00 +26°C° 0.6 mm 2 m/s 667 mmHg 62%

    21 Janeiro, Segunda-feira

    Tempo Temperatura Precipitação Vento Pressão Humidade
    00:00 +25°C° 0.6 mm 2 m/s 666 mmHg 66%
    01:00 +24°C° 0.6 mm 3 m/s 666 mmHg 69%
    02:00 +24°C° 0.2 mm 3 m/s 666 mmHg 68%
    03:00 +24°C° 0.2 mm 3 m/s 666 mmHg 67%
    04:00 +23°C° 0.2 mm 2 m/s 666 mmHg 65%
    05:00 +24°C° 0 mm 3 m/s 667 mmHg 62%
    06:00 +24°C° 0 mm 3 m/s 667 mmHg 59%
    07:00 +25°C° 0 mm 3 m/s 668 mmHg 56%
    08:00 +27°C° 0 mm 2 m/s 668 mmHg 47%
    09:00 +30°C° 0 mm 2 m/s 669 mmHg 37%
    10:00 +32°C° 0 mm 2 m/s 669 mmHg 28%
    11:00 +35°C° 0 mm 2 m/s 669 mmHg 26%
    12:00 +35°C° 0 mm 1 m/s 668 mmHg 24%
    13:00 +37°C° 0 mm 1 m/s 668 mmHg 22%
    14:00 +38°C° 0 mm 2 m/s 667 mmHg 22%
    15:00 +38°C° 0 mm 2 m/s 667 mmHg 22%
    16:00 +37°C° 0 mm 3 m/s 666 mmHg 22%
    17:00 +36°C° 0 mm 3 m/s 666 mmHg 28%
    18:00 +34°C° 0 mm 3 m/s 666 mmHg 34%
    19:00 +31°C° 0 mm 3 m/s 666 mmHg 41%
    20:00 +30°C° 0 mm 3 m/s 667 mmHg 44%
    21:00 +29°C° 0 mm 3 m/s 667 mmHg 48%
    22:00 +28°C° 0 mm 3 m/s 667 mmHg 52%
    23:00 +27°C° 0 mm 3 m/s 667 mmHg 55%

    22 Janeiro, Terça-feira

    Tempo Temperatura Precipitação Vento Pressão Humidade
    00:00 +27°C° 0 mm 3 m/s 667 mmHg 58%
    01:00 +26°C° 0 mm 2 m/s 667 mmHg 61%
    02:00 +25°C° 0 mm 2 m/s 667 mmHg 62%
    03:00 +25°C° 0 mm 1 m/s 667 mmHg 64%
    04:00 +24°C° 0 mm 1 m/s 667 mmHg 65%
    05:00 +25°C° 0 mm 1 m/s 667 mmHg 63%
    06:00 +25°C° 0 mm 1 m/s 668 mmHg 61%
    07:00 +26°C° 0 mm 1 m/s 668 mmHg 60%
    08:00 +28°C° 0 mm 2 m/s 669 mmHg 51%
    09:00 +30°C° 0 mm 3 m/s 669 mmHg 43%
    10:00 +33°C° 0 mm 4 m/s 669 mmHg 34%
    11:00 +34°C° 0 mm 4 m/s 669 mmHg 30%
    12:00 +35°C° 0 mm 5 m/s 669 mmHg 25%
    13:00 +37°C° 0 mm 5 m/s 668 mmHg 20%
    14:00 +37°C° 0 mm 5 m/s 668 mmHg 20%
    15:00 +37°C° 0 mm 5 m/s 667 mmHg 19%
    16:00 +36°C° 0 mm 5 m/s 666 mmHg 19%
    17:00 +35°C° 0 mm 4 m/s 666 mmHg 21%
    18:00 +33°C° 0 mm 3 m/s 666 mmHg 24%
    19:00 +30°C° 0 mm 2 m/s 665 mmHg 26%
    20:00 +29°C° 0 mm 2 m/s 666 mmHg 28%
    21:00 +28°C° 0 mm 2 m/s 666 mmHg 30%
    22:00 +27°C° 0 mm 2 m/s 666 mmHg 32%
    23:00 +26°C° 0 mm 2 m/s 666 mmHg 38%
    Mostrar mais